Lytton, British Columbia

1:59 AM PDT on June 28, 2017 (GMT -0700)
Lytton

Weather History for CWLY - August, 2013

Change the Weather History Date:

Saturday, August 31, 2013

  Actual Average Record
Temperature  
Mean Temperature 68 °F -  
Max Temperature 86 °F 71 °F 98 °F (1998)
Min Temperature 51 °F 49 °F 46 °F (2008)
Cooling Degree Days 4    
Growing Degree Days 18 (Base 50)    
Moisture  
Dew Point 50 °F    
Average Humidity 64    
Maximum Humidity 100    
Minimum Humidity 22    
Precipitation  
Precipitation 0.00 in 0.03 in - ()
Sea Level Pressure  
Sea Level Pressure 30.05 in    
Wind  
Wind Speed 3 mph ()    
Max Wind Speed 7 mph    
Max Gust Speed -    
Visibility 8.7 miles    
Events      
Averages and records for this station are not official NWS values.
T = Trace of Precipitation, MM = Missing Value Source: Averaged Metar Reports

Daily Weather History Graph

Daily Weather History Graph

Search for Another Location

Airport or City:

Trip Planner

Search our weather history database for the weather conditions in past years. The results will help you decide how hot, cold, wet, or windy it might be!

Date:

Astronomy

Aug. 31, 2013 Rise Set
Actual Time 6:20 AM PDT 7:51 PM PDT
Civil Twilight 5:46 AM PDT 8:25 PM PDT
Nautical Twilight 5:04 AM PDT 9:06 PM PDT
Astronomical Twilight 4:19 AM PDT 9:52 PM PDT
Moon 1:36 AM PDT (8/31) 5:09 PM PDT (8/31)
Length of Visible Light 14h 39m
Length of Day
13h 31m
Waning Crescent, 20% of the Moon is Illuminated
Aug 31
Waning Crescent
Sep 5
New
Sep 12
First Quarter
Sep 19
Full
Sep 26
Last Quarter

Hourly Weather History & Observations

Time (PDT) Temp. Dew Point Humidity Pressure Visibility Wind Dir Wind Speed Gust Speed Precip Events Conditions
12:00 AM 59.0 °F 53.6 °F 82% 30.16 in 9.0 mi SSW 3.5 mph - N/A   Clear
1:00 AM 59.0 °F 51.8 °F 77% 30.16 in 9.0 mi SSW 3.5 mph - N/A   Clear
2:00 AM 57.2 °F 51.8 °F 82% 30.17 in 9.0 mi Variable 2.3 mph - N/A   Clear
3:00 AM 55.4 °F 51.8 °F 88% 30.17 in 9.0 mi Calm Calm - N/A   Clear
4:00 AM 53.6 °F 51.8 °F 94% 30.17 in 9.0 mi Calm Calm - N/A   Clear
5:00 AM 53.6 °F 51.8 °F 94% 30.18 in 9.0 mi SSW 2.3 mph - N/A   Clear
5:57 AM 51.8 °F 51.8 °F 100% 30.18 in 9.0 mi South 3.5 mph - N/A   Mostly Cloudy
6:00 AM 51.8 °F 51.8 °F 100% 30.18 in 9.0 mi South 3.5 mph - N/A   Mostly Cloudy
7:00 AM 53.6 °F 51.8 °F 94% 30.18 in 9.0 mi Calm Calm - N/A   Overcast
8:00 AM 53.6 °F 51.8 °F 94% 30.18 in 9.0 mi Calm Calm - N/A   Overcast
9:00 AM 53.6 °F 51.8 °F 94% 30.17 in 9.0 mi South 4.6 mph - N/A   Mostly Cloudy
9:01 AM 53.6 °F 51.8 °F 94% 30.17 in 9.0 mi South 4.6 mph - N/A   Scattered Clouds
10:00 AM 60.8 °F 51.8 °F 72% 30.14 in 9.0 mi Calm Calm - N/A   Clear
11:00 AM 68.0 °F 51.8 °F 56% 30.09 in 9.0 mi North 6.9 mph - N/A   Clear
12:00 PM 71.6 °F 50.0 °F 46% 30.06 in 9.0 mi North 3.5 mph - N/A   Clear
1:00 PM 75.2 °F 50.0 °F 41% 30.02 in 9.0 mi Variable 2.3 mph - N/A   Clear
2:00 PM 78.8 °F 50.0 °F 36% 29.99 in 8.0 mi South 4.6 mph - N/A   Clear
2:07 PM 78.8 °F 50.0 °F 36% 29.99 in 5.0 mi South 5.8 mph - N/A   Haze
2:08 PM 78.8 °F 50.0 °F 36% 29.99 in 6.0 mi South 4.6 mph - N/A   Haze
3:00 PM 84.2 °F 48.2 °F 29% 29.96 in 9.0 mi SSW 6.9 mph - N/A   Clear
4:00 PM 84.2 °F 42.8 °F 23% 29.92 in 9.0 mi South 4.6 mph - N/A   Clear
5:00 PM 86.0 °F 42.8 °F 22% 29.89 in 9.0 mi South 4.6 mph - N/A   Clear
6:00 PM 80.6 °F 44.6 °F 28% 29.88 in 9.0 mi South 3.5 mph - N/A   Clear
7:00 PM 75.2 °F 48.2 °F 38% 29.88 in 9.0 mi South 4.6 mph - N/A   Clear
8:00 PM 69.8 °F 50.0 °F 49% 29.88 in 9.0 mi SSE 4.6 mph - N/A   Clear
9:00 PM 66.2 °F 51.8 °F 60% 29.90 in 9.0 mi South 4.6 mph - N/A   Clear
10:00 PM 64.4 °F 51.8 °F 64% 29.91 in 9.0 mi SSE 4.6 mph - N/A   Clear
11:00 PM 62.6 °F 51.8 °F 68% 29.91 in 9.0 mi SSE 3.5 mph - N/A   Clear